GW4954 Weather Reports


time (UTC)temp
C
wind
direction
speed
KPH
gust
KPH
rain 1hr
cm
rain 24hr
cm
rain mn
cm
humidity
%
barometer
mb
20260505041700 17 24 1.6 4.8 0.00 0.00 0.00 47 1003.9
20260505041157 17 28 3.2 4.8 0.00 0.00 0.00 47 1004.0
20260505040654 16 356 3.2 9.7 0.00 0.00 0.00 47 1003.9
20260505040151 16 16 1.6 4.8 0.00 0.00 0.00 50 1004.2
20260505035648 16 15 1.6 1.6 0.00 0.25 0.25 51 1004.1
20260505035144 15 22 1.6 1.6 0.00 0.25 0.25 52 1004.2
20260505034640 16 9 1.6 3.2 0.00 0.25 0.25 52 1004.1
20260505034138 16 22 1.6 3.2 0.00 0.25 0.25 52 1004.1
20260505033634 16 30 1.6 4.8 0.00 0.25 0.25 52 1004.0
20260505033133 16 359 1.6 1.6 0.00 0.25 0.25 53 1004.2
20260505032630 16 1 1.6 4.8 0.00 0.25 0.25 53 1004.2
20260505032126 16 16 1.6 3.2 0.00 0.25 0.25 53 1004.1
20260505031624 16 11 3.2 3.2 0.00 0.25 0.25 53 1004.2
20260505031120 15 17 3.2 3.2 0.00 0.25 0.25 54 1004.4
20260505030617 15 18 1.6 3.2 0.00 0.25 0.25 55 1004.3
20260505030113 15 23 1.6 1.6 0.00 0.25 0.25 55 1004.3
20260505025608 15 39 1.6 3.2 0.00 0.25 0.25 55 1004.6
20260505025108 15 19 1.6 4.8 0.00 0.25 0.25 55 1004.4
20260505024604 15 39 3.2 3.2 0.00 0.25 0.25 55 1004.4
20260505024102 15 22 1.6 3.2 0.00 0.25 0.25 55 1004.5
20260505023559 15 9 1.6 3.2 0.00 0.25 0.25 55 1004.5
20260505023056 15 19 1.6 3.2 0.00 0.25 0.25 56 1004.3
20260505022554 15 18 3.2 3.2 0.00 0.25 0.25 56 1004.5
20260505022051 15 20 0.0 1.6 0.00 0.25 0.25 58 1004.7
20260505021547 15 13 1.6 1.6 0.00 0.25 0.25 58 1004.7
20260505021044 15 16 0.0 3.2 0.00 0.25 0.25 58 1004.6
20260505020543 15 6 1.6 3.2 0.00 0.25 0.25 58 1004.8
20260505020041 15 1 1.6 1.6 0.00 0.25 0.25 58 1004.8
20260505015538 15 16 0.0 3.2 0.00 0.25 0.25 58 1004.9
20260505015035 15 20 0.0 3.2 0.00 0.25 0.25 58 1004.8
20260505014531 15 14 1.6 1.6 0.00 0.25 0.25 58 1004.8
20260505014029 15 12 0.0 3.2 0.00 0.25 0.25 58 1004.8
20260505013526 15 18 1.6 3.2 0.00 0.25 0.25 58 1004.7
20260505013023 15 21 0.0 3.2 0.00 0.25 0.25 58 1004.8
20260505012522 15 18 1.6 1.6 0.00 0.25 0.25 58 1004.7
20260505012018 15 17 0.0 1.6 0.00 0.25 0.25 58 1004.8
20260505011513 15 19 3.2 4.8 0.00 0.25 0.25 57 1004.9
20260505011011 15 25 0.0 1.6 0.00 0.25 0.25 58 1004.8
20260505010506 15 18 0.0 1.6 0.00 0.25 0.25 59 1004.9
20260505010002 15 24 1.6 1.6 0.00 0.25 0.25 58 1004.9
20260505005459 15 12 0.0 0.0 0.00 0.25 0.25 59 1004.9
20260505004957 15 13 0.0 0.0 0.00 0.25 0.25 59 1004.9
20260505004454 15 13 0.0 0.0 0.00 0.25 0.25 59 1004.8
20260505003950 15 13 0.0 0.0 0.00 0.25 0.25 59 1005.0
20260505003448 16 20 1.6 1.6 0.00 0.25 0.25 59 1004.8
20260505002944 16 20 1.6 1.6 0.00 0.25 0.25 59 1004.7
20260505002440 16 20 1.6 1.6 0.00 0.25 0.25 59 1004.7
20260505001939 16 20 1.6 1.6 0.00 0.25 0.25 59 1004.7
20260505001436 16 14 1.6 1.6 0.00 0.25 0.25 59 1005.0
20260505000933 16 13 0.0 1.6 0.00 0.25 0.25 58 1004.7
20260505000431 16 13 0.0 1.6 0.00 0.25 0.25 58 1004.7
20260504235927 16 13 0.0 1.6 0.00 0.25 0.25 58 1004.8
20260504235425 16 13 0.0 1.6 0.00 0.25 0.25 58 1004.4
20260504234921 16 13 0.0 1.6 0.00 0.25 0.25 58 1004.5
20260504234418 16 13 0.0 1.6 0.00 0.25 0.25 58 1004.6
20260504233915 17 49 3.2 4.8 0.00 0.25 0.25 50 1004.6
20260504233410 17 49 3.2 4.8 0.00 0.25 0.25 50 1004.5
20260504232907 17 49 3.2 4.8 0.00 0.25 0.25 50 1004.4
20260504232404 17 49 3.2 4.8 0.00 0.25 0.25 50 1004.5
20260504231901 18 23 0.0 1.6 0.00 0.25 0.25 49 1004.4
20260504231358 18 23 0.0 1.6 0.00 0.25 0.25 49 1004.4
20260504230854 18 23 0.0 1.6 0.00 0.25 0.25 49 1004.6
20260504230351 18 23 0.0 1.6 0.00 0.25 0.25 49 1004.5
20260504225850 18 23 0.0 0.0 0.00 0.25 0.25 48 1004.6
20260504225346 18 47 1.6 3.2 0.00 0.25 0.25 47 1004.7
20260504224844 18 358 1.6 3.2 0.00 0.25 0.25 47 1004.6
20260504224340 18 38 1.6 1.6 0.00 0.25 0.25 46 1004.7
20260504223837 18 38 1.6 1.6 0.00 0.25 0.25 46 1004.7
20260504223333 18 7 0.0 1.6 0.00 0.25 0.25 46 1004.6
20260504222829 18 7 0.0 3.2 0.00 0.25 0.25 46 1004.5
20260504222326 18 45 0.0 0.0 0.00 0.25 0.25 45 1004.6
20260504221825 18 45 0.0 0.0 0.00 0.25 0.25 45 1004.6
20260504221321 18 351 3.2 11.3 0.00 0.25 0.25 45 1004.5
20260504220818 18 139 6.4 11.3 0.00 0.25 0.25 45 1004.6
20260504220315 18 3 3.2 14.5 0.00 0.25 0.25 45 1004.7
20260504215813 18 61 4.8 6.4 0.00 0.25 0.25 45 1004.6
20260504215309 18 20 3.2 9.7 0.00 0.25 0.25 45 1004.6
20260504214805 18 16 4.8 9.7 0.00 0.25 0.25 45 1004.4
20260504214301 18 20 0.0 4.8 0.00 0.25 0.25 46 1004.5
20260504213758 18 357 1.6 3.2 0.00 0.25 0.25 46 1004.5
20260504213254 18 28 1.6 1.6 0.00 0.25 0.25 47 1004.6
20260504212752 18 11 3.2 4.8 0.00 0.25 0.25 47 1004.7
20260504212248 18 26 1.6 3.2 0.00 0.25 0.25 46 1004.7
20260504211746 18 12 0.0 1.6 0.00 0.25 0.25 47 1004.6
20260504211241 19 18 1.6 6.4 0.00 0.25 0.25 46 1004.6
20260504210739 19 78 0.0 1.6 0.00 0.25 0.25 46 1004.7
20260504210236 18 36 1.6 1.6 0.00 0.25 0.25 46 1004.7
20260504205733 19 156 1.6 1.6 0.00 0.25 0.25 46 1004.8
20260504205231 19 93 1.6 3.2 0.00 0.25 0.25 46 1004.6
20260504204729 19 98 1.6 1.6 0.00 0.25 0.25 46 1004.7
20260504204227 18 0 3.2 3.2 0.00 0.25 0.25 48 1004.9
20260504203726 18 25 1.6 1.6 0.00 0.25 0.25 48 1004.8
20260504203223 18 23 0.0 0.0 0.00 0.25 0.25 49 1004.9
20260504202723 18 25 0.0 0.0 0.00 0.25 0.25 49 1004.7
20260504202220 17 114 3.2 4.8 0.00 0.25 0.25 51 1004.9
20260504201717 17 114 3.2 4.8 0.00 0.25 0.25 51 1005.0
20260504201215 17 13 1.6 1.6 0.00 0.25 0.25 53 1004.8
20260504200712 17 13 1.6 1.6 0.00 0.25 0.25 53 1005.1
20260504200208 17 13 1.6 1.6 0.00 0.25 0.25 53 1004.9
20260504195705 17 13 1.6 1.6 0.00 0.25 0.25 53 1005.0
20260504195200 17 26 1.6 1.6 0.00 0.25 0.25 54 1005.3
20260504194658 17 26 1.6 1.6 0.00 0.25 0.25 54 1005.2
20260504194153 17 2 3.2 6.4 0.00 0.25 0.25 54 1005.4
20260504193650 17 115 1.6 3.2 0.00 0.25 0.25 53 1005.2
20260504193148 17 25 1.6 1.6 0.00 0.25 0.25 54 1005.3
20260504192646 16 20 1.6 1.6 0.00 0.25 0.25 56 1005.3
20260504192144 16 322 3.2 4.8 0.00 0.25 0.25 56 1005.7
20260504191642 16 322 3.2 4.8 0.00 0.25 0.25 56 1005.7
20260504191138 17 25 3.2 4.8 0.00 0.25 0.25 54 1005.6
20260504190634 17 25 3.2 4.8 0.00 0.25 0.25 54 1005.8
20260504190131 16 349 1.6 3.2 0.00 0.25 0.25 56 1005.8
20260504185627 15 54 6.4 9.7 0.00 0.25 0.25 61 1005.9
20260504185124 15 54 6.4 9.7 0.00 0.25 0.25 61 1005.9
20260504184620 15 54 6.4 9.7 0.00 0.25 0.25 61 1006.1
20260504184115 15 84 3.2 4.8 0.00 0.25 0.25 61 1006.2
20260504183613 15 337 3.2 3.2 0.00 0.25 0.25 60 1006.2
20260504183110 15 93 1.6 11.3 0.00 0.25 0.25 61 1006.3
20260504182607 15 50 4.8 6.4 0.00 0.25 0.25 61 1006.2
20260504182105 15 81 4.8 9.7 0.00 0.25 0.25 61 1006.4
20260504181601 15 8 1.6 1.6 0.00 0.25 0.25 63 1006.4
20260504181059 14 16 0.0 1.6 0.00 0.25 0.25 65 1006.2
20260504180558 15 22 1.6 4.8 0.00 0.25 0.25 64 1006.4
20260504180057 15 353 1.6 1.6 0.00 0.25 0.25 63 1006.4
20260504175554 14 69 1.6 4.8 0.00 0.25 0.25 66 1006.3
20260504175050 14 358 3.2 6.4 0.00 0.25 0.25 66 1006.4
20260504174548 13 9 3.2 3.2 0.00 0.25 0.25 66 1006.3
20260504174045 13 90 4.8 4.8 0.00 0.25 0.25 66 1006.5
20260504173542 14 72 3.2 4.8 0.00 0.25 0.25 65 1006.6
20260504173039 13 42 3.2 3.2 0.00 0.25 0.25 65 1006.5
20260504172535 13 70 3.2 4.8 0.00 0.25 0.25 65 1006.6
20260504172032 13 118 6.4 9.7 0.00 0.25 0.25 65 1006.6
20260504171529 13 30 0.0 1.6 0.00 0.25 0.25 67 1006.6
20260504171021 13 30 0.0 1.6 0.00 0.25 0.25 67 1006.7
20260504170516 13 30 0.0 1.6 0.00 0.25 0.25 67 1006.8
20260504160436 12 61 4.8 9.7 0.00 0.25 0.25 74 1006.7
20260504150900 10 180 1.6 6.4 0.00 0.25 0.25 82 1006.7
20260504150356 10 12 0.0 6.4 0.00 0.25 0.25 85 1006.6
20260504141326 8 140 3.2 9.7 0.00 0.25 0.25 90 1006.7
20260504140823 8 17 1.6 4.8 0.00 0.25 0.25 90 1006.7
20260504140319 8 20 6.4 6.4 0.00 0.25 0.25 90 1006.6
20260504130748 8 8 1.6 6.4 0.00 0.23 0.23 91 1006.0
20260504130243 8 83 0.0 4.8 0.00 0.23 0.23 92 1006.1
20260504120207 8 3 1.6 3.2 0.30 0.20 0.20 91 1005.6
20260504110635 8 12 1.6 3.2 0.00 0.00 0.00 87 1005.5
20260504110131 8 6 0.0 1.6 0.00 0.00 0.00 87 1005.5
20260504100557 7 20 0.0 3.2 0.00 0.00 0.00 88 1005.9
20260504081950 7 27 1.6 3.2 0.00 0.00 0.00 74 1007.0
20260504081447 7 48 3.2 4.8 0.00 0.00 0.00 73 1006.8
20260504080943 7 6 0.0 1.6 0.00 0.00 0.00 73 1006.9
20260504080440 7 10 1.6 1.6 0.00 0.00 0.00 72 1007.2
20260504070408 8 12 0.0 3.2 0.00 0.00 0.00 67 1007.3
20260504050253 8 26 0.0 4.8 0.00 0.00 0.00 55 1007.6
20260504045745 8 1 0.0 0.0 0.00 0.00 0.00 55 1007.8